Location: Ida Center
(41.8662°N, 83.5713°W)
Time: 12:08:59
(UTC+00:00)

BREEZE-M DEB (TANK) - Pass Details

Date: 17 November 2019
Orbit: 310 x 13119 km, 49.6° (Epoch: 11 December)

Event Time Altitude Azimuth Distance (km) Brightness Sun altitude
Rises 23:32:23 0° 291° (WNW) 3,214 7.7 -15.0°
Reaches altitude 10° 23:35:51 10° 311° (NW) 1,589 5.7 -15.6°
Maximum altitude 23:38:03 18° 360° (N) 931 3.9 -16.0°
Enters shadow 23:38:13 18° 6° (N) 923 3.8 -16.0°
